Location: Caltech
(34.1382°N, 118.1253°W)
Time: 20:03:47
(UTC-07:00)

Sapphire - Visible Passes

Search period start: 23 May 2015 00:00
Search period end: 02 June 2015 00:00
Orbit: 786 x 796 km, 67.1° (Epoch: 23 May)

Date Brightness Start Highest point End Pass type
(mag) Time Alt. Az. Time Alt. Az. Time Alt. Az.
23 May ? 01:13:50 19° ENE 01:13:50 19° ENE 01:15:44 10° NE visible
23 May ? 02:54:34 34° NW 02:54:34 34° NW 02:59:21 10° N visible
24 May ? 00:43:57 12° ENE 00:43:57 12° ENE 00:44:34 10° ENE visible
24 May ? 02:24:40 43° NNW 02:24:40 43° NNW 02:29:02 10° NNE visible
25 May ? 01:54:43 45° N 01:54:43 45° N 01:58:36 10° NNE visible
26 May ? 01:24:45 39° NNE 01:24:45 39° NNE 01:28:06 10° NNE visible
26 May ? 03:05:28 12° WNW 03:06:54 12° NW 03:09:00 10° NNW visible
27 May ? 00:54:44 30° NE 00:54:44 30° NE 00:57:29 10° NNE visible
27 May ? 02:35:27 17° WNW 02:36:03 17° NW 02:39:25 10° N visible
28 May ? 00:24:40 22° NE 00:24:40 22° NE 00:26:45 10° NE visible
28 May ? 02:05:23 23° NW 02:05:23 23° NW 02:09:27 10° N visible
28 May ? 23:54:34 16° ENE 23:54:34 16° ENE 23:55:53 10° NE visible
29 May ? 01:35:16 30° NW 01:35:16 30° NW 01:39:17 10° N visible
29 May ? 23:24:24 12° ENE 23:24:24 12° ENE 23:24:48 10° ENE visible
30 May ? 01:05:06 36° NNW 01:05:06 36° NNW 01:08:59 10° NNE visible
31 May ? 00:34:52 41° N 00:34:52 41° N 00:38:36 10° NNE visible
01 Jun ? 00:04:34 42° NNE 00:04:34 42° NNE 00:08:06 10° NNE visible
01 Jun ? 01:45:16 10° WNW 01:47:00 11° NW 01:48:32 10° NNW visible
01 Jun ? 23:34:12 38° NE 23:34:12 38° NE 23:37:31 10° NNE visible
